Wind_Speed
18 19 19 20 20 20 20 20 20 21 21 22 22 22 22 23 22 23 23 23 23 24 24 25 25 26 26 25 25 26 26 26 27 27 28 29 29 29
17 18 19 20 20 21 21 21 22 22 22 23 23 23 23 23 24 25 24 25 25 25 26 26 26 26 26 26 26 27 27 27 28 28 28 29 29 29
17 18 19 19 20 21 21 22 22 22 22 23 24 25 25 25 25 25 25 25 26 26 27 27 27 27 27 27 28 28 29 29 29 29 29 29 30 30
18 18 19 20 21 21 22 23 23 24 24 24 25 26 26 26 26 26 26 26 26 26 27 27 28 29 28 29 29 29 29 29 30 30 31 31 31 31
19 19 20 21 22 22 22 23 24 25 26 26 26 26 27 26 27 27 27 28 27 27 28 28 29 30 30 30 30 30 31 31 31 31 32 33 33 33
20 21 21 21 22 23 23 23 24 25 26 27 27 28 28 28 28 29 29 29 29 29 28 28 29 30 30 31 31 32 32 33 33 33 33 33 34 34
21 22 22 22 23 23 24 25 25 26 26 27 27 27 28 28 29 29 30 30 29 30 29 30 30 31 31 32 32 33 34 35 35 34 34 34 34 34
22 23 23 24 24 24 25 26 27 27 27 27 27 27 28 29 30 30 30 30 29 29 30 31 31 31 32 33 33 34 35 34 34 35 35 35 34 34
24 24 24 24 24 25 26 27 27 27 27 27 28 28 28 29 30 30 30 30 30 30 31 32 32 32 32 32 33 34 34 34 34 35 35 35 36 35
23 23 24 24 25 26 26 26 27 27 27 28 29 29 30 31 31 32 31 31 32 32 33 33 33 33 33 34 34 34 34 34 35 36 35 35 36 36
23 24 24 25 25 26 26 26 26 27 28 28 29 30 31 31 31 31 31 32 32 32 33 34 34 35 35 35 35 35 35 35 36 36 36 35 36 36
24 24 25 25 26 26 27 27 28 28 29 30 31 32 32 32 32 32 33 33 33 33 33 34 35 35 35 35 36 36 36 36 37 37 36 36 36 36
26 27 27 28 28 28 28 29 29 30 31 32 32 33 33 34 34 34 34 34 34 34 34 35 36 36 37 37 37 37 37 37 38 38 37 36 36 36
28 29 29 30 30 30 30 31 31 32 33 33 34 34 34 34 34 35 35 35 36 36 36 37 37 37 37 38 38 38 38 38 38 39 38 36 35 35
30 30 31 31 31 32 32 32 33 33 34 35 35 35 35 35 36 36 36 36 37 37 37 37 37 37 38 38 38 39 39 38 38 38 37 37 36 36
32 32 32 33 33 34 34 34 34 34 35 35 35 35 35 35 36 36 36 37 37 37 38 38 38 39 39 39 39 39 39 38 37 37 36 36 36 36
34 34 34 35 35 35 35 35 35 35 35 34 35 35 35 36 36 36 37 37 37 37 37 38 38 38 38 38 39 39 39 38 37 36 36 36 36 35
36 36 36 36 35 35 36 36 35 35 35 36 36 36 36 36 37 37 37 37 37 37 37 38 38 38 38 39 39 38 38 38 37 37 37 36 35 35
37 37 37 36 36 36 36 36 36 36 36 37 37 37 37 37 37 37 38 38 38 38 37 37 38 38 39 39 38 37 37 37 36 36 35 35 34 34
37 36 37 37 37 37 37 37 37 37 37 37 38 38 38 38 37 37 38 38 38 37 37 37 37 38 38 37 36 36 36 35 35 34 34 33 33 33
36 36 37 37 37 37 37 37 37 38 38 38 38 38 38 38 38 38 38 38 37 37 37 37 37 37 37 36 36 35 35 34 34 33 33 33 33 32
38 38 37 37 37 37 38 38 38 39 38 38 38 38 38 38 38 37 37 37 37 37 37 37 36 36 35 35 35 35 34 35 34 33 33 32 32 32
39 38 38 37 38 38 38 38 39 39 39 38 38 37 38 38 37 37 37 37 36 36 36 36 35 35 35 34 34 34 33 33 32 32 31 31 31 31
Wind_Direction
267 265 265 266 267 270 271 272 274 276 278 278 278 279 281 280 281 282 282 283 284 285 284 284 285 285 285 284 287 286 286 286 288 289 289 289 289 290
269 268 267 269 270 271 272 273 275 275 276 279 278 279 282 283 282 283 284 284 283 285 286 287 285 285 284 285 286 285 284 286 287 288 288 289 291 291
274 274 271 272 274 274 273 273 274 276 277 278 279 280 282 283 285 285 286 285 285 285 285 284 284 285 285 285 285 286 286 285 285 286 288 290 292 291
277 278 277 277 277 277 276 275 275 276 278 278 279 280 281 282 284 285 285 285 286 286 285 284 284 284 285 286 286 287 286 285 285 286 288 289 291 290
278 278 279 278 276 277 278 278 278 277 278 279 278 279 280 281 281 283 284 286 287 286 285 285 284 283 283 284 286 287 286 285 286 287 287 289 290 290
279 279 280 280 277 277 278 279 280 280 280 280 279 279 279 280 281 282 284 286 286 286 285 285 285 285 284 285 286 286 286 286 287 287 287 288 289 289
282 281 281 280 279 279 279 279 281 281 281 280 280 280 279 280 281 282 284 286 285 286 284 284 285 286 285 286 286 286 286 286 285 286 287 287 288 289
286 284 282 280 280 280 281 280 280 280 281 282 282 281 281 281 281 282 284 285 285 285 285 285 285 285 286 287 286 287 288 287 285 285 287 287 287 288
288 286 283 281 281 282 283 283 283 282 281 282 283 284 284 283 283 284 285 285 284 285 286 285 285 286 286 287 288 287 287 286 285 285 286 287 288 289
292 289 285 283 283 284 285 286 285 284 283 282 283 283 284 284 284 284 283 282 283 285 286 286 286 286 286 287 287 288 287 286 287 287 287 288 288 288
293 290 288 286 285 285 286 287 287 287 285 285 284 283 283 284 285 285 285 284 284 284 284 285 285 285 285 285 286 286 286 287 288 287 289 289 287 286
292 292 290 288 288 287 287 288 288 288 288 288 287 285 285 285 286 286 285 284 284 284 284 285 285 286 285 284 285 286 286 286 286 286 287 287 285 284
291 292 292 292 289 287 288 288 288 288 288 288 288 287 286 286 286 286 286 285 285 285 285 285 285 285 285 285 285 286 287 286 285 285 286 286 285 284
291 291 291 291 290 289 288 288 288 289 289 288 288 287 287 286 286 286 286 285 285 286 285 285 285 284 284 284 286 286 286 286 285 285 285 285 285 285
292 292 291 290 290 290 290 290 289 289 289 289 288 287 286 286 287 287 287 287 287 286 286 286 286 285 285 285 286 286 286 286 285 286 286 286 284 283
291 291 292 292 291 290 289 289 289 289 289 289 288 287 286 286 286 287 287 287 287 287 287 286 286 285 286 285 285 286 286 286 285 285 284 283 282 282
291 291 292 292 291 289 289 289 289 289 289 289 289 288 287 287 286 286 287 287 288 288 287 287 287 286 286 286 285 286 287 286 285 284 283 283 281 280
291 292 292 292 291 290 289 289 289 288 288 289 289 289 288 287 287 287 287 287 287 286 287 287 287 287 287 286 286 286 286 285 284 283 283 283 280 279
291 291 292 292 290 289 289 289 288 288 288 289 289 288 288 288 288 288 288 288 287 287 287 287 287 287 287 286 286 285 285 285 285 284 284 283 281 280
291 291 291 290 290 289 288 288 288 287 288 288 288 288 288 287 287 288 288 288 288 287 288 288 286 286 286 286 286 285 285 285 285 283 283 283 282 281
291 291 291 290 289 288 288 288 288 287 287 288 288 287 287 287 287 287 287 288 288 288 288 288 287 286 286 286 286 286 286 286 286 284 283 283 283 281
291 291 290 290 289 288 289 289 288 287 287 288 288 288 288 287 287 287 287 288 289 289 288 288 287 287 287 286 287 286 286 286 285 283 282 282 281 280
290 289 289 289 288 288 288 289 289 289 288 287 288 288 287 287 287 287 287 288 289 289 289 289 288 287 286 286 287 286 286 285 285 283 281 280 279 280
Height
5883 5884 5884 5883 5883 5883 5883 5882 5882 5881 5881 5880 5879 5878 5878 5877 5876 5875 5874 5873 5872 5871 5870 5868 5867 5866 5864 5863 5862 5860 5859 5858 5856 5855 5853 5851 5849 5848
5879 5879 5879 5879 5878 5878 5878 5877 5876 5876 5875 5875 5874 5873 5872 5871 5870 5869 5868 5867 5866 5865 5863 5862 5861 5859 5858 5856 5855 5853 5852 5851 5849 5847 5846 5844 5842 5840
5875 5875 5874 5874 5873 5873 5872 5872 5871 5871 5870 5869 5868 5867 5866 5865 5864 5862 5861 5860 5859 5858 5856 5855 5854 5852 5851 5849 5848 5846 5845 5843 5842 5840 5838 5836 5834 5833
5871 5870 5869 5869 5868 5867 5867 5866 5865 5865 5864 5863 5862 5860 5859 5858 5857 5856 5855 5853 5852 5851 5849 5848 5846 5845 5843 5842 5840 5839 5837 5835 5834 5832 5831 5829 5826 5824
5866 5865 5864 5863 5863 5862 5861 5860 5859 5858 5857 5857 5856 5854 5853 5851 5850 5849 5848 5846 5844 5843 5842 5840 5839 5837 5836 5834 5832 5831 5829 5827 5826 5824 5822 5820 5818 5816
5861 5860 5859 5858 5857 5856 5855 5854 5853 5852 5851 5849 5848 5847 5846 5844 5843 5842 5840 5839 5837 5835 5834 5832 5830 5829 5827 5826 5824 5822 5820 5819 5817 5815 5813 5811 5809 5807
5856 5855 5854 5853 5851 5850 5849 5848 5847 5845 5844 5842 5841 5840 5838 5837 5835 5834 5832 5831 5829 5827 5825 5824 5822 5821 5819 5817 5815 5814 5812 5810 5808 5806 5804 5802 5799 5797
5850 5849 5848 5847 5845 5844 5843 5841 5840 5838 5836 5835 5833 5832 5830 5829 5828 5826 5824 5823 5821 5820 5817 5816 5814 5812 5810 5809 5807 5805 5803 5800 5798 5796 5794 5792 5790 5788
5844 5843 5841 5840 5838 5837 5836 5834 5832 5831 5829 5828 5826 5825 5823 5821 5819 5817 5816 5815 5813 5811 5809 5807 5805 5803 5801 5799 5798 5795 5793 5791 5789 5787 5785 5783 5781 5778
5838 5837 5835 5833 5832 5830 5828 5827 5825 5823 5822 5820 5819 5817 5815 5813 5811 5809 5808 5806 5804 5802 5800 5799 5796 5794 5792 5790 5788 5786 5784 5782 5780 5778 5775 5773 5771 5769
5832 5830 5828 5827 5825 5823 5821 5819 5817 5816 5814 5812 5810 5809 5807 5805 5803 5801 5799 5797 5795 5793 5791 5789 5787 5785 5783 5781 5778 5776 5774 5772 5770 5768 5766 5763 5761 5758
5825 5823 5821 5819 5817 5815 5813 5812 5810 5808 5806 5804 5802 5800 5798 5796 5794 5792 5790 5788 5786 5784 5782 5780 5778 5775 5773 5771 5768 5766 5764 5762 5760 5758 5756 5753 5751 5748
5818 5816 5814 5812 5809 5807 5806 5804 5802 5800 5798 5796 5793 5791 5789 5787 5785 5782 5780 5778 5776 5774 5772 5770 5767 5765 5763 5761 5759 5756 5754 5752 5749 5747 5745 5743 5741 5738
5811 5809 5807 5804 5802 5800 5798 5795 5793 5791 5789 5786 5784 5782 5780 5777 5775 5773 5770 5768 5766 5764 5761 5759 5757 5754 5752 5750 5748 5746 5743 5741 5739 5737 5734 5732 5730 5728
5803 5800 5798 5796 5793 5791 5789 5786 5784 5781 5779 5776 5774 5772 5769 5767 5765 5763 5760 5758 5755 5753 5751 5748 5746 5744 5741 5739 5737 5735 5732 5730 5728 5726 5723 5721 5719 5717
5794 5791 5789 5786 5784 5781 5779 5776 5774 5771 5769 5766 5764 5761 5759 5756 5754 5752 5750 5747 5745 5742 5740 5737 5735 5733 5730 5728 5726 5724 5721 5719 5717 5714 5712 5710 5708 5707
5784 5782 5779 5777 5774 5771 5769 5766 5763 5761 5758 5756 5753 5751 5748 5746 5744 5741 5739 5736 5734 5732 5729 5727 5724 5721 5719 5717 5715 5712 5710 5708 5706 5704 5702 5700 5698 5696
5774 5771 5769 5766 5763 5761 5758 5755 5753 5750 5748 5745 5743 5740 5737 5735 5732 5730 5727 5725 5723 5720 5718 5716 5713 5710 5708 5706 5704 5701 5699 5697 5695 5693 5691 5689 5687 5685
5763 5761 5758 5755 5753 5750 5748 5745 5742 5740 5737 5734 5732 5729 5726 5724 5721 5719 5716 5714 5711 5709 5706 5704 5702 5699 5697 5695 5693 5690 5688 5686 5684 5682 5680 5678 5677 5675
5752 5749 5747 5744 5741 5739 5736 5734 5731 5728 5726 5723 5720 5718 5715 5712 5710 5708 5705 5703 5700 5697 5695 5692 5690 5688 5686 5684 5682 5680 5677 5675 5673 5671 5669 5667 5666 5665
5741 5739 5736 5733 5730 5727 5725 5722 5720 5717 5714 5711 5709 5706 5704 5701 5698 5696 5694 5691 5688 5686 5684 5681 5679 5676 5674 5672 5670 5668 5667 5664 5663 5661 5659 5657 5656 5655
5730 5727 5724 5722 5719 5716 5713 5711 5708 5705 5702 5700 5697 5695 5692 5689 5687 5684 5682 5680 5677 5675 5672 5670 5667 5665 5663 5661 5659 5657 5656 5654 5652 5650 5649 5648 5646 5645
5718 5715 5713 5710 5707 5704 5702 5699 5696 5693 5690 5688 5685 5683 5680 5678 5675 5673 5670 5668 5666 5663 5661 5658 5656 5654 5652 5650 5648 5646 5645 5643 5641 5640 5639 5638 5636 5635